Regional Weather Roundup
Issued by NWS Grand Forks, ND

Home | Current Version | Previous Version | Text Only | Print | Product List | Glossary Off
Versions: 1 2 3 4 5 6 7 8 9 10 11 12 13 14 15 16 17 18 19 20 21 22 23 24 25 26 27 28 29 30 31 32 33 34 35 36 37 38 39 40 41 42 43 44 45 46 47 48 49 50

000
ASUS43 KFGF 280810
RWRFGF
PRAIRIE TO PINES  WEATHER ROUNDUP
NATIONAL WEATHER SERVICE EASTERN NORTH DAKOTA/GRAND FORKS ND
300 AM CDT SAT MAY 28 2016

 **SATELLITE DATA USED TO AUGMENT SKY COVER AT AUTOMATED STATIONS**
 *****  WEATHER ACROSS EASTERN NORTH DAKOTA  *****

CITY           SKY/WX    TMP DP  RH WIND       PRES   REMARKS
GRAND FORKS    CLOUDY    63  58  83 SE5       29.81S
GRAND FRKS AFB MOCLDY    61  61 100 N3        29.82S
GRAND FRKS NWS   N/A     61 N/A N/A SW2         N/A
DEVILS LAKE    CLOUDY    57  56  96 N9        29.85F FOG
FARGO          PTCLDY    58  56  93 CALM      29.80R
WAHPETON ARPT  CLOUDY    59  54  82 E6        29.79F
$$

 ***** WEATHER ACROSS CENTRAL AND WESTERN NORTH DAKOTA  *****

CITY           SKY/WX    TMP DP  RH WIND       PRES   REMARKS
BISMARCK       MOCLDY    55  51  86 NE3       29.84S
MINOT          CLOUDY    56  54  93 NE7       29.88S FOG
JAMESTOWN      CLOUDY    59  56  89 E6        29.80F
MINOT AFB      CLOUDY    54  54 100 NE8       29.88S FOG
GARRISON         N/A     57  54  89 NE7       29.85F
WILLISTON      CLOUDY    57  53  86 E9        29.88R
DICKINSON      MOCLDY    47  44  90 W3        29.84F
HETTINGER      MOCLDY    41  38  89 W3        29.87S
$$

 *****  OTHER AIRPORT OBSERVATIONS IN OUR AREA  *****

CITY           SKY/WX    TMP DP  RH WIND       PRES   REMARKS
WALHALLA       FAIR      57  57 100 N10       29.85S
GRAFTON AIRPOR CLOUDY    61  61 100 N5        29.85R
VALLEY CITY AR PTSUNNY   57  57 100 CALM      29.82F
CANDO          NOT AVBL
CAVALIER APRT  CLOUDY    57  57 100 N8        29.84S
GWINNER        CLOUDY    59  59 100 N6        29.81R
SHEYENNE NWR     N/A     58  58  99 CALM      29.95S
ROLLA          CLOUDY    50  50 100 N10       29.90S
 ***** THE ABOVE OBSERVATIONS ARE NON NWS ARE NOT QUALITY
       CONTROLLED AND MAY MIS-REPORT RAIN FOR SNOW...
$$

  *****  WEATHER ACROSS NORTHERN MINNESOTA  *****

CITY           SKY/WX    TMP DP  RH WIND       PRES   REMARKS
FLAG ISLAND    CLOUDY    61  55  82 NE9       29.85S
WARROAD        PTCLDY    57  54  88 CALM      29.86S
ROSEAU         PTCLDY    57  52  82 E8        29.85S
HALLOCK        CLOUDY    63  57  82 E6        29.83S
THF RVR FALLS  CLOUDY    57  54  88 E3        29.85S
BAUDETTE       CLOUDY    59  53  80 NE7       29.84S
WASKISH        CLOUDY    57  54  88 E3        29.83S
CROOKSTON      CLOUDY    59  57  94 SE6       29.84R
STEPHEN NDAWN    N/A     61  57  88 E3          N/A
GREENBUSH NDAW   N/A     57  55  94 E3          N/A
$$
  *****  WEATHER ACROSS CENTRAL AND WEST MINNESOTA  *****

CITY           SKY/WX    TMP DP  RH WIND       PRES   REMARKS
FOSSTON        CLOUDY    54  52  94 CALM      29.83F
BEMIDJI        CLOUDY    56  54  92 CALM      29.82F
PARK RAPIDS    CLOUDY    59  54  83 N5        29.82R
ELBOW LAKE     CLOUDY    58  56  91 NE7       29.79F
WADENA         CLOUDY    55  54  94 NE5       29.81S
DETROIT LAKES  CLOUDY    57  54  88 E3        29.83S
MOORHEAD       PTCLDY    59  57  94 CALM      29.81S
FERGUS FALLS   CLOUDY    59  57  94 NE5       29.77F
MORRIS MN      CLOUDY    61  57  88 NE5       29.77S
STAPLES        CLOUDY    55  54  94 CALM      29.81S
$$
  *****  WEATHER ELSEWHERE ACROSS MINNESOTA  *****

CITY           SKY/WX    TMP DP  RH WIND       PRES   REMARKS
DULUTH         DRZL/FOG  52  51  97 E8        29.78S VSB 1
INTRNTL FALLS  CLOUDY    61  54  77 E5        29.83F
ELY            HVY RAIN  55  54  94 NE6       29.80F
CLOQUET        DRIZZLE   52  48  87 E3        29.79S
WHEATON        CLOUDY    61  57  88 NE5       29.79F
BRAINERD       CLOUDY    56  54  93 N6        29.81R
HIBBING        CLOUDY    54  53  97 N6        29.80F FOG
ALEXANDRIA     CLOUDY    59  55  87 NE3       29.81S
SAINT CLOUD    CLOUDY    57  56  96 N5        29.76F
MINNEAPOLIS    CLOUDY    62  59  90 N3        29.74F
$$

  *****  WEATHER ACROSS SOUTH DAKOTA  *****

CITY           SKY/WX    TMP DP  RH WIND       PRES   REMARKS
SIOUX FALLS    LGT RAIN  63  58  83 NE6       29.72F
BROOKINGS      CLOUDY    60  58  92 NE3       29.75F
WATERTOWN      CLOUDY    61  58  90 E5        29.77R
HURON          CLOUDY    57  56  96 N6        29.75F
SISSETON         N/A     60  57  89 CALM      29.77S
ABERDEEN       CLOUDY    60  57  89 N7        29.79S
MITCHELL       CLOUDY    61  58  90 N6        29.74F
PIERRE         CLOUDY    58  53  84 NW8       29.79S
MOBRIDGE       CLOUDY    57  52  83 N5        29.79F
RAPID CITY     CLEAR     44  42  93 NW7       29.86S
$$

  *****  SOME WEATHER IN NEARBY STATES *****

CITY           SKY/WX    TMP DP  RH WIND       PRES   REMARKS
GLASGOW MT     MOCLDY    54  49  83 E10       29.83S
GREAT FALLS MT LGT RAIN  47  40  76 W7        29.95R
CHEYENNE WY    CLEAR     46  36  68 NW6       29.96R
SCOTTSBLUFF NE CLEAR     44  41  89 CALM      29.90F
OMAHA NE       CLOUDY    62  59  90 SE8       29.69F
DES MOINES IA  CLOUDY    64  60  87 S6        29.72F
DAVENPORT IA   LGT RAIN  67  65  93 SW10      29.75R
CHICAGO IL     CLOUDY    68  65  90 S8        29.85F
EAU CLAIRE WI  FOG       62  62 100 W5        29.75R VSB 1/4
LA CROSSE WI   CLOUDY    68  66  93 CALM      29.72F
$$

  *****  SOME NATIONAL WEATHER *****

CITY           SKY/WX    TMP DP  RH WIND       PRES   REMARKS
LA GUARDIA NY  PTCLDY    74  64  71 SW9       30.07S
RALEIGH NC     CLEAR     62  58  86 CALM      30.15S
ATLANTA GA     PTCLDY    69  59  70 S7        30.10R
NEW ORLEANS LA PTCLDY    76  71  85 SE9       29.96R
OKLAHOMA CITY  PTCLDY    62  61  96 SW5       29.81R
ALBUQUERQUE NM PTCLDY    57  24  28 S5        30.00R
SALT LAKE CITY MOCLDY    57  45  64 SW3       29.97R
LOS ANGELES CA CLOUDY    60  55  83 CALM      29.88S
BOISE ID       CLEAR     51  31  46 W7        30.01R
SEATTLE WA     CLOUDY    52  43  71 SW12      30.14S
$$

*** WEATHER ACROSS MANITOBA...SASKATCHEWAN AND ONTARIO ***
                ***ONTARIO***

CITY           SKY/WX    TMP DP  RH WIND       PRES   REMARKS
GERALDTON      LGT RAIN  59  55  88 N8        29.92F
THUNDER BAY    LGT RAIN  57  57 100 E7        29.84F FOG
SIOUX LOOKOUT  CLOUDY    57  57 100 E6        29.91S
TORONTO        PTCLDY    68  59  73 VRB2      30.02R
BIG TROUT LK   CLOUDY    37  36  93 NE7       30.18R
PICKLE LAKE    NOT AVBL
DRYDEN         CLOUDY    59  57  94 NE13      29.88F
KENORA         NOT AVBL
$$
                *** MANITOBA***

CITY           SKY/WX    TMP DP  RH WIND       PRES   REMARKS
BRANDON        CLOUDY    52  48  87 NE13G18   29.92R
DAUPHIN        CLOUDY    48  45  87 N9        29.98F
ISLAND LAKE    CLOUDY    43  39  87 E7        30.14S
PILOT MOUND      N/A     54  52  94 N12         N/A
THE PAS        CLOUDY    45  39  81 E7        30.09F
THOMPSON       NOT AVBL
WINNIPEG       MOCLDY    55  55 100 NE10      29.87S
LYNN LAKE      CLOUDY    39  36  87 SE8G18    30.16S
CHURCHILL      FLURRIES  28  27  93 S8        30.36F WCI  20
$$
                ***SASKATCHEWAN***

CITY           SKY/WX    TMP DP  RH WIND       PRES   REMARKS
ESTEVAN        LGT RAIN  52  52 100 E10       29.91R FOG
KINDERSLEY     LGT RAIN  54  52  94 SE8       29.86R
LLOYDMINSTER   LGT RAIN  54  52  94 SE6       29.83F
PRINCE ALBERT  MOCLDY    46  45  93 E9G18     29.97R
REGINA         MOCLDY    52  48  87 E15       29.92S
YORKTON        CLOUDY    48  45  87 NE12      29.99S
N. BATTLEFORD  CLOUDY    55  54  94 E9        29.89S
LA RONGE       CLEAR     43  39  87 E7        30.02S
SASKATOON      PTCLDY    55  50  82 SE14      29.90S
SWIFT CURRENT  CLOUDY    55  50  82 E3        29.86F
$$
NOTE: THESE ARE AUTOMATED STATIONS WITH LIMITED QUALITY CONTROL
      "FAIR" INDICATES FEW OR NO CLOUDS BELOW 12,000 FEET WITH NO
      SIGNIFICANT WEATHER AND/OR OBSTRUCTIONS TO VISIBILITY.
      SKY/WX - SKY CONDITION AND SIGNIFICANT WEATHER.
      TMP - AIR TEMPERATURE.    DP   - DEWPOINT TEMPERATURE.
      RH  - RELATIVE HUMIDITY.  PRES - PRESSURE.
      HX  - HEAT INDEX.         WCI  - WIND CHILL INDEX.
$




USA.gov is the U.S. government's official web portal to all federal, state and local government web resources and services.